sat.trackr.live / text

‹ back to catalog

STARLINK-36304

NORAD 68550 · 2026-070J

PAYLOAD ACTIVE UNKNOWN

§ Identity

Operator
Country
US
Launch date
2026-04-02
Launch site
AFETR
Launch vehicle
Mass (kg)
RCS (m²)

Purposes: comms

External: N2YO · Heavens-Above · Gunter

§ Orbital elements

Epoch: 2026-09-20T03:43:09.063264Z

Period
93.85 min
Inclination
53.1590°
Eccentricity
0.0000846
Mean motion
15.34418089 rev/d
Perigee alt
462.1 km
Apogee alt
463.2 km
Semi-major
6,840.8 km
B*
5.6247e-4
RAAN
175.3867°
Arg perigee
83.7452°
Mean anomaly
276.3647°
Rev number
2,638

§ Raw data

STARLINK-363041 68550U 26070J   26263.15496601  .00018686  00000+0  56247-3 0  99952 68550  53.1590 175.3867 0000846  83.7452 276.3647 15.34418089 26380

JSON: /api/v1/satellites/68550 · /tle

For live sub-satellite position, see the globe view (requires WebGL).

§ Visibility from observer

Set your observer location to see the next 7 days of passes ≥ 10°. The values pass through the URL so the page stays shareable.

No JS? Fill the form by hand. The geolocation button needs JavaScript.